Location: Blackwater Beach
(38.5801°N, 75.1577°W)
Time: 02:35:27
(UTC+00:00)

Cosmos 2297 Rocket - Pass Details

Date: 20 May 2026
Orbit: 838 x 842 km, 71.0° (Epoch: 9 June)

Event Time Altitude Azimuth Distance (km) Brightness Sun altitude
Exits shadow 03:30:38 65° 61° (ENE) 921 2.3 -28.0°
Drops below altitude 10° 03:35:35 10° 27° (NNE) 2,460 5.1 -28.4°
Sets 03:38:02 0° 25° (NNE) 3,399 5.9 -28.6°
